This demonstration page uses our WeatherBlox Daily Observations layout. Learn more.

Left ArrowRight Arrow

Hourly Observations for May 15, 2017

Temp ( °F °C ) Dew Point ( °F °C ) Humidity (%) Winds ( mph kmh ) Pressure ( in mb ) Visibility ( mi km ) Precip ( " mm )
12:15 am 00:15 Clear 66 19 54 12 64 64 Calm 29.77 1008 10 16 0.00 0.00
12:35 am 00:35 Clear 64 18 52 11 64 64 Calm 29.77 1008 10 16 0.00 0.00
12:55 am 00:55 Clear 66 19 52 11 60 60 Calm 29.74 1007 10 16 0.00 0.00
1:15 am 01:15 Clear 64 18 54 12 68 68 NNE 3 6 29.74 1007 10 16 0.00 0.00
1:35 am 01:35 Clear 64 18 54 12 68 68 NNE 5 7 29.74 1007 10 16 0.00 0.00
1:55 am 01:55 Clear 61 16 52 11 72 72 NNE 6 9 29.77 1008 10 16 0.00 0.00
2:15 am 02:15 Clear 61 16 52 11 72 72 NE 6 9 29.77 1008 10 16 0.00 0.00
2:35 am 02:35 Clear 61 16 52 11 72 72 NE 5 7 29.77 1008 10 16 0.00 0.00
2:55 am 02:55 Clear 61 16 52 11 72 72 Calm 29.77 1008 10 16 0.00 0.00
3:15 am 03:15 Clear 61 16 54 12 77 77 NE 7 11 29.74 1007 10 16 0.00 0.00
3:35 am 03:35 Clear 61 16 54 12 77 77 NE 3 6 29.74 1007 10 16 0.00 0.00
3:55 am 03:55 Clear 61 16 54 12 77 77 NE 5 7 29.74 1007 10 16 0.00 0.00
4:15 am 04:15 Clear 61 16 52 11 72 72 Calm 29.77 1008 10 16 0.00 0.00
4:35 am 04:35 Clear 61 16 54 12 77 77 NE 5 7 29.74 1007 10 16 0.00 0.00
4:55 am 04:55 Clear 61 16 54 12 77 77 NE 3 6 29.74 1007 10 16 0.00 0.00
5:15 am 05:15 Clear 61 16 54 12 77 77 Calm 29.74 1007 10 16 0.00 0.00
5:35 am 05:35 Clear 61 16 54 12 77 77 Calm 29.74 1007 10 16 0.00 0.00
5:55 am 05:55 Clear 57 14 52 11 82 82 Calm 29.74 1007 10 16 0.00 0.00
6:15 am 06:15 Clear 59 15 54 12 82 82 Calm 29.74 1007 10 16 0.00 0.00
6:35 am 06:35 Sunny 57 14 52 11 82 82 Calm 29.74 1007 10 16 0.00 0.00
6:55 am 06:55 Sunny 57 14 52 11 82 82 Calm 29.74 1007 10 16 0.00 0.00
7:15 am 07:15 Sunny 59 15 54 12 82 82 Calm 29.74 1007 8 13 0.00 0.00
7:35 am 07:35 Sunny 61 16 55 13 83 83 Calm 29.74 1007 9 14 0.00 0.00
7:55 am 07:55 Sunny 63 17 57 14 83 83 Calm 29.74 1007 10 16 0.00 0.00
8:15 am 08:15 Sunny 66 19 59 15 78 78 Calm 29.71 1006 10 16 0.00 0.00
8:35 am 08:35 Sunny 68 20 61 16 78 78 S 12 19 29.71 1006 10 16 0.00 0.00
8:55 am 08:55 Sunny 70 21 61 16 73 73 S 12 19 29.71 1006 10 16 0.00 0.00
9:15 am 09:15 Sunny 72 22 61 16 69 69 S 12 19 29.68 1005 10 16 0.00 0.00
9:35 am 09:35 Sunny 72 22 59 15 65 65 S 10 17 29.68 1005 10 16 0.00 0.00
9:55 am 09:55 Sunny 73 23 59 15 61 61 S 10 17 29.68 1005 10 16 0.00 0.00
10:15 am 10:15 Sunny 73 23 59 15 61 61 S 12 19 29.68 1005 10 16 0.00 0.00
10:35 am 10:35 Sunny 75 24 57 14 54 54 S 13 20 29.68 1005 10 16 0.00 0.00
10:55 am 10:55 Sunny 75 24 55 13 50 50 SW 6 9 29.68 1005 10 16 0.00 0.00
11:15 am 11:15 Sunny 75 24 55 13 50 50 SW 8 13 29.68 1005 10 16 0.00 0.00
11:35 am 11:35 Sunny 77 25 55 13 47 47 SSE 5 7 29.68 1005 10 16 0.00 0.00
11:55 am 11:55 Sunny 79 26 55 13 45 45 S 5 7 29.65 1004 10 16 0.00 0.00
12:15 pm 12:15 Sunny 79 26 55 13 45 45 Calm 29.65 1004 10 16 0.00 0.00
12:35 pm 12:35 Sunny 79 26 55 13 45 45 SSE 12 19 29.65 1004 10 16 0.00 0.00
12:55 pm 12:55 Sunny 79 26 55 13 45 45 E 6 9 29.62 1003 10 16 0.00 0.00
1:15 pm 13:15 Sunny 81 27 55 13 42 42 S 8 13 29.62 1003 10 16 0.00 0.00
1:35 pm 13:35 Sunny 81 27 57 14 45 45 S 7 11 29.62 1003 10 16 0.00 0.00
1:55 pm 13:55 Sunny 81 27 57 14 45 45 SSE 15 24 29.62 1003 10 16 0.00 0.00
2:15 pm 14:15 Sunny 82 28 57 14 42 42 SSE 12 19 29.62 1003 10 16 0.00 0.00
2:35 pm 14:35 Sunny 82 28 59 15 45 45 SE 13 20 29.62 1003 10 16 0.00 0.00
2:55 pm 14:55 Sunny 82 28 59 15 45 45 SE 10 17 29.59 1002 10 16 0.00 0.00
3:15 pm 15:15 Sunny 84 29 61 16 45 45 S 16 26 29.56 1001 10 16 0.00 0.00
3:35 pm 15:35 Sunny 82 28 57 14 42 42 SSE 17 28 29.59 1002 10 16 0.00 0.00
3:55 pm 15:55 Sunny 84 29 57 14 40 40 S 15 24 29.53 1000 10 16 0.00 0.00
4:15 pm 16:15 Sunny 84 29 57 14 40 40 S 14 22 29.53 1000 10 16 0.00 0.00
4:35 pm 16:35 Sunny 84 29 59 15 43 43 S 16 26 29.53 1000 10 16 0.00 0.00
4:55 pm 16:55 Sunny 84 29 57 14 40 40 S 21 33 29.53 1000 10 16 0.00 0.00
5:15 pm 17:15 Sunny 88 31 59 15 38 38 S 16 26 29.53 1000 10 16 0.00 0.00
5:35 pm 17:35 Sunny 84 29 57 14 40 40 S 18 30 29.50 999 10 16 0.00 0.00
5:55 pm 17:55 Sunny 88 31 57 14 35 35 S 15 24 29.50 999 10 16 0.00 0.00
6:15 pm 18:15 Sunny 84 29 54 12 35 35 SSW 16 26 29.50 999 10 16 0.00 0.00
6:35 pm 18:35 Sunny 86 30 55 13 35 35 SSW 17 28 29.50 999 10 16 0.00 0.00
6:55 pm 18:55 Sunny 84 29 57 14 40 40 S 13 20 29.50 999 10 16 0.00 0.00
7:15 pm 19:15 Sunny 84 29 57 14 40 40 S 17 28 29.50 999 10 16 0.00 0.00
7:35 pm 19:35 Sunny 84 29 61 16 45 45 SSE 20 31 29.47 998 10 16 0.00 0.00
7:55 pm 19:55 Sunny 82 28 61 16 48 48 SSE 16 26 29.47 998 10 16 0.00 0.00
8:15 pm 20:15 Sunny with Nearby Thunderstorms 81 27 63 17 54 54 SSE 14 22 29.50 999 10 16 0.00 0.00

Powered by AerisWeather